EW3393 Weather Reports


Display with metric or nautical units.
time (UTC)temp
F
wind
direction
speed
MPH
gust
MPH
rain 1hr
in
rain 24hr
in
rain mn
in
humidity
%
barometer
mb
20260906144832 77 290 10.0 13.0 0.00 0.01 0.01 66 1012.3
20260906144327 76 279 11.0 13.0 0.00 0.01 0.01 65 1012.2
20260906143820 76 304 10.0 14.0 0.00 0.01 0.01 66 1012.1
20260906143332 76 300 11.0 14.0 0.00 0.01 0.01 66 1012.1
20260906142823 76 299 10.0 13.0 0.00 0.01 0.01 67 1012.0
20260906142314 76 298 10.0 13.0 0.00 0.01 0.01 68 1011.8
20260906141847 76 292 11.0 13.0 0.00 0.01 0.01 68 1011.7
20260906141336 77 277 11.0 13.0 0.00 0.01 0.01 67 1011.6
20260906140828 77 274 10.0 12.0 0.00 0.01 0.01 65 1011.5
20260906140319 77 292 9.0 10.0 0.00 0.01 0.01 62 1011.3
20260906135848 78 272 7.0 10.0 0.00 0.01 0.01 62 1011.2
20260906135316 78 300 7.0 9.0 0.00 0.01 0.01 63 1011.2
20260906134833 78 290 7.0 10.0 0.00 0.01 0.01 64 1011.2
20260906134344 78 257 8.0 10.0 0.00 0.01 0.01 66 1011.2
20260906133816 78 242 7.0 8.0 0.00 0.01 0.01 66 1011.1
20260906133347 78 243 4.0 6.0 0.00 0.01 0.01 65 1011.1
20260906132820 78 297 4.0 10.0 0.01 0.01 0.01 64 1011.1
20260906132332 78 271 7.0 11.0 0.01 0.01 0.01 63 1011.2
20260906131824 78 321 7.0 11.0 0.01 0.01 0.01 63 1011.2
20260906131332 78 298 7.0 11.0 0.01 0.01 0.01 63 1011.3
20260906130825 78 351 8.0 12.0 0.01 0.01 0.01 63 1011.2
20260906130316 78 329 7.0 12.0 0.01 0.01 0.01 62 1011.3
20260906125824 78 320 9.0 15.0 0.01 0.01 0.01 61 1011.4
20260906125319 78 323 11.0 17.0 0.01 0.01 0.01 60 1011.4
20260906124832 78 323 12.0 17.0 0.01 0.01 0.01 60 1011.6
20260906124323 78 342 12.0 15.0 0.01 0.01 0.01 59 1011.6
20260906123815 78 313 11.0 14.0 0.01 0.01 0.01 58 1011.8
20260906123326 78 312 9.0 15.0 0.01 0.01 0.01 57 1011.8
20260906122819 78 311 9.0 16.0 0.00 0.00 0.00 55 1011.8
20260906122330 80 304 12.0 17.0 0.00 0.00 0.00 53 1011.8
20260906121823 80 312 13.0 17.0 0.00 0.00 0.00 50 1011.7
20260906121317 81 313 10.0 16.0 0.00 0.00 0.00 50 1011.6
20260906120851 81 314 9.0 15.0 0.00 0.00 0.00 51 1011.6
20260906120322 80 330 8.0 14.0 0.00 0.00 0.00 49 1011.7
20260906115832 80 309 5.0 11.0 0.00 0.00 0.00 49 1011.7
20260906115323 81 325 7.0 11.0 0.00 0.00 0.00 49 1011.6
20260906114836 81 324 7.0 12.0 0.00 0.00 0.00 50 1011.7
20260906114347 81 311 9.0 13.0 0.00 0.00 0.00 47 1011.6
20260906113819 82 323 10.0 16.0 0.00 0.00 0.00 49 1011.5
20260906113351 81 329 7.0 12.0 0.00 0.00 0.00 47 1011.4
20260906112842 81 284 6.0 9.0 0.00 0.00 0.00 51 1011.3
20260906112332 81 339 6.0 9.0 0.00 0.00 0.00 51 1011.1
20260906111845 81 355 6.0 10.0 0.00 0.00 0.00 50 1011.0
20260906111319 81 5 6.0 10.0 0.00 0.00 0.00 53 1011.0
20260906110831 80 347 3.0 8.0 0.00 0.00 0.00 55 1010.9
20260906110323 80 345 3.0 9.0 0.00 0.00 0.00 58 1010.8
20260906105832 80 329 6.0 10.0 0.00 0.00 0.00 57 1010.8
20260906105343 80 317 7.0 10.0 0.00 0.00 0.00 56 1010.8
20260906104814 80 302 7.0 11.0 0.00 0.00 0.00 56 1010.7
20260906104323 80 331 8.0 11.0 0.00 0.00 0.00 57 1010.7
20260906103816 80 298 9.0 12.0 0.00 0.00 0.00 56 1010.7
20260906103327 80 298 9.0 14.0 0.00 0.00 0.00 54 1010.6
20260906102819 81 308 11.0 14.0 0.00 0.00 0.00 52 1010.7
20260906102329 82 304 10.0 14.0 0.00 0.00 0.00 50 1010.7
20260906101821 82 322 9.0 13.0 0.00 0.00 0.00 49 1010.6
20260906101317 82 321 11.0 14.0 0.00 0.00 0.00 47 1010.6
20260906100830 82 314 11.0 16.0 0.00 0.00 0.00 46 1010.6
20260906100321 83 306 12.0 16.0 0.00 0.00 0.00 44 1010.6
20260906095830 83 315 11.0 16.0 0.00 0.00 0.00 45 1010.7
20260906095321 82 311 10.0 12.0 0.00 0.00 0.00 45 1010.8
20260906094833 82 319 9.0 12.0 0.00 0.00 0.00 46 1010.8
20260906094324 83 318 10.0 13.0 0.00 0.00 0.00 47 1010.8
20260906093817 83 308 10.0 13.0 0.00 0.00 0.00 42 1010.9
20260906093328 84 299 11.0 15.0 0.00 0.00 0.00 41 1010.9
20260906092825 85 308 9.0 15.0 0.00 0.00 0.00 39 1010.9
20260906092315 86 285 10.0 13.0 0.00 0.00 0.00 36 1011.0
20260906091829 86 281 10.0 13.0 0.00 0.00 0.00 32 1011.0
20260906091320 86 283 8.0 11.0 0.00 0.00 0.00 31 1010.9
20260906090813 86 288 9.0 12.0 0.00 0.00 0.00 31 1010.8
20260906090325 86 326 7.0 13.0 0.00 0.00 0.00 31 1010.8
20260906085854 86 316 10.0 13.0 0.00 0.00 0.00 31 1010.7
20260906085343 86 313 10.0 13.0 0.00 0.00 0.00 31 1010.9
20260906084814 86 293 9.0 11.0 0.00 0.00 0.00 31 1010.9
20260906084325 86 302 7.0 11.0 0.00 0.00 0.00 31 1010.9
20260906083821 86 288 8.0 12.0 0.00 0.00 0.00 31 1010.9
20260906083352 86 294 9.0 14.0 0.00 0.00 0.00 31 1010.9
20260906082822 86 296 10.0 14.0 0.00 0.00 0.00 30 1010.9
20260906082313 87 300 8.0 13.0 0.00 0.00 0.00 30 1010.9
20260906081825 87 305 10.0 14.0 0.00 0.00 0.00 30 1011.1
20260906081315 87 302 9.0 14.0 0.00 0.00 0.00 30 1011.1
20260906080827 87 309 10.0 13.0 0.00 0.00 0.00 30 1011.0
20260906080319 87 291 10.0 15.0 0.00 0.00 0.00 30 1011.0
20260906075828 87 295 12.0 16.0 0.00 0.00 0.00 30 1011.0
20260906075317 87 270 12.0 15.0 0.00 0.00 0.00 30 1011.0
20260906074814 87 300 11.0 14.0 0.00 0.00 0.00 30 1011.0
20260906074325 87 306 8.0 12.0 0.00 0.00 0.00 30 1010.9
20260906073818 87 277 8.0 12.0 0.00 0.00 0.00 30 1011.0
20260906073329 87 275 9.0 12.0 0.00 0.00 0.00 30 1011.0
20260906072821 87 267 10.0 12.0 0.00 0.00 0.00 30 1011.0
20260906072332 87 286 9.0 11.0 0.00 0.00 0.00 30 1010.9
20260906071824 87 277 8.0 16.0 0.00 0.00 0.00 30 1010.8
20260906071315 87 304 12.0 17.0 0.00 0.00 0.00 30 1010.8
20260906070829 87 308 12.0 17.0 0.00 0.00 0.00 30 1010.8
20260906070323 87 299 9.0 16.0 0.00 0.00 0.00 29 1010.8
20260906065853 87 302 13.0 16.0 0.00 0.00 0.00 29 1010.7
20260906065323 87 307 12.0 16.0 0.00 0.00 0.00 29 1010.8
20260906064815 87 296 12.0 16.0 0.00 0.00 0.00 29 1010.7
20260906064326 87 289 13.0 16.0 0.00 0.00 0.00 29 1010.6
20260906063819 87 318 12.0 16.0 0.00 0.00 0.00 29 1010.7
20260906063330 87 277 12.0 16.0 0.00 0.00 0.00 29 1010.8
20260906062842 87 311 11.0 17.0 0.00 0.00 0.00 29 1010.7
20260906062332 87 300 14.0 17.0 0.00 0.00 0.00 29 1010.8
20260906061824 87 288 11.0 15.0 0.00 0.00 0.00 29 1010.8
20260906061320 87 314 11.0 15.0 0.00 0.00 0.00 29 1010.7
20260906060833 87 303 11.0 15.0 0.00 0.00 0.00 29 1010.8
20260906060324 87 299 12.0 15.0 0.00 0.00 0.00 29 1010.8
20260906055813 87 304 9.0 16.0 0.00 0.00 0.00 29 1010.8
20260906055324 87 298 11.0 17.0 0.00 0.00 0.00 29 1010.8
20260906054817 87 313 11.0 15.0 0.00 0.00 0.00 29 1010.9
20260906054328 87 309 12.0 18.0 0.00 0.00 0.00 28 1010.8
20260906053820 87 294 14.0 18.0 0.00 0.00 0.00 28 1010.8
20260906053330 87 317 12.0 15.0 0.00 0.00 0.00 28 1010.8
20260906052819 87 311 11.0 15.0 0.00 0.00 0.00 28 1010.8
20260906052314 87 303 11.0 18.0 0.00 0.00 0.00 28 1010.7
20260906051826 87 308 13.0 18.0 0.00 0.00 0.00 28 1010.7
20260906051317 87 311 10.0 16.0 0.00 0.00 0.00 28 1010.8
20260906050828 88 288 12.0 16.0 0.00 0.00 0.00 28 1010.9
20260906050319 88 286 11.0 17.0 0.00 0.00 0.00 28 1010.9
20260906045829 88 315 13.0 19.0 0.00 0.00 0.00 28 1010.9
20260906045320 88 277 15.0 19.0 0.00 0.00 0.00 28 1010.9
20260906044834 88 302 12.0 19.0 0.00 0.00 0.00 28 1010.9
20260906044323 88 295 11.0 20.0 0.00 0.00 0.00 28 1010.9
20260906043817 88 307 14.0 20.0 0.00 0.00 0.00 28 1011.0
20260906043332 88 320 13.0 17.0 0.00 0.00 0.00 28 1011.1
20260906042825 88 299 13.0 18.0 0.00 0.00 0.00 28 1011.0
20260906042317 88 296 15.0 18.0 0.00 0.00 0.00 28 1010.9
20260906041831 88 307 12.0 23.0 0.00 0.00 0.00 28 1010.8
20260906041342 89 279 12.0 21.0 0.00 0.00 0.00 28 1010.7
20260906040813 89 294 18.0 23.0 0.00 0.00 0.00 28 1010.7
20260906040324 89 297 17.0 23.0 0.00 0.00 0.00 28 1010.6
20260906035833 89 275 15.0 23.0 0.00 0.00 0.00 28 1010.5
20260906035323 89 294 15.0 23.0 0.00 0.00 0.00 28 1010.4
20260906034840 89 297 16.0 23.0 0.00 0.00 0.00 27 1010.5
20260906034329 89 288 13.0 23.0 0.00 0.00 0.00 27 1010.4
20260906033822 89 281 18.0 22.0 0.00 0.00 0.00 27 1010.3
20260906033313 90 309 15.0 21.0 0.00 0.00 0.00 27 1010.3
20260906032827 90 275 16.0 21.0 0.00 0.00 0.00 27 1010.2
20260906032318 90 301 17.0 21.0 0.00 0.00 0.00 27 1010.1
20260906031850 90 288 17.0 20.0 0.00 0.00 0.00 27 1010.1
20260906031340 91 290 14.0 20.0 0.00 0.00 0.00 27 1010.1
20260906030832 91 294 12.0 19.0 0.00 0.00 0.00 27 1010.1
20260906030324 91 291 14.0 19.0 0.00 0.00 0.00 27 1010.0
20260906025817 91 304 12.0 19.0 0.00 0.00 0.00 27 1010.0
20260906025327 91 300 14.0 19.0 0.00 0.00 0.00 27 1010.0
20260906024821 91 306 12.0 17.0 0.00 0.00 0.00 27 1010.0
20260906024313 91 268 13.0 17.0 0.00 0.00 0.00 27 1009.9
20260906023826 91 310 12.0 17.0 0.00 0.00 0.00 27 1009.9
20260906023316 91 259 13.0 17.0 0.00 0.00 0.00 27 1009.9
20260906022829 91 272 12.0 17.0 0.00 0.00 0.00 27 1009.9
20260906022319 92 298 10.0 17.0 0.00 0.00 0.00 27 1009.8
20260906021830 92 305 11.0 17.0 0.00 0.00 0.00 27 1009.8
20260906021324 92 300 14.0 19.0 0.00 0.00 0.00 27 1009.8
20260906020817 92 293 14.0 19.0 0.00 0.00 0.00 27 1009.9
20260906020329 92 298 11.0 17.0 0.00 0.00 0.00 26 1009.9
20260906015819 93 296 13.0 20.0 0.00 0.00 0.00 26 1009.8
20260906015331 93 290 16.0 20.0 0.00 0.00 0.00 26 1009.9
20260906014824 94 281 12.0 16.0 0.00 0.00 0.00 26 1009.8
20260906014315 94 245 13.0 16.0 0.00 0.00 0.00 25 1009.8
20260906013828 95 298 10.0 14.0 0.00 0.00 0.00 24 1009.9
20260906013324 95 258 8.0 17.0 0.00 0.00 0.00 18 1009.9
20260906012818 95 273 13.0 17.0 0.00 0.00 0.00 23 1009.8
20260906012329 96 247 12.0 19.0 0.00 0.00 0.00 23 1009.9
20260906011822 96 237 12.0 19.0 0.00 0.00 0.00 18 1009.8
20260906011352 96 263 9.0 14.0 0.00 0.00 0.00 23 1009.8
20260906010823 96 250 8.0 15.0 0.00 0.00 0.00 20 1009.9
20260906010314 97 252 9.0 15.0 0.00 0.00 0.00 19 1009.9
20260906005843 97 268 12.0 17.0 0.00 0.00 0.00 22 1009.7
20260906005332 97 276 6.0 18.0 0.00 0.00 0.00 18 1009.8
20260906004823 97 267 11.0 18.0 0.00 0.00 0.00 16 1009.8
20260906004314 98 324 2.0 6.0 0.00 0.00 0.00 15 1010.0
20260906003826 98 232 4.0 9.0 0.00 0.00 0.00 16 1009.8
20260906003322 98 234 6.0 14.0 0.00 0.00 0.00 15 1009.8
20260906002814 98 196 9.0 14.0 0.00 0.00 0.00 16 1009.7
20260906002326 98 187 6.0 9.0 0.00 0.00 0.00 16 1009.8
20260906001820 99 205 6.0 10.0 0.00 0.00 0.00 16 1009.7
20260906001331 99 202 6.0 10.0 0.00 0.00 0.00 16 1009.7
20260906000844 99 160 6.0 13.0 0.00 0.00 0.00 16 1009.7
20260906000314 99 216 7.0 13.0 0.00 0.00 0.00 16 1009.6
20260905235844 99 174 5.0 13.0 0.00 0.00 0.00 16 1009.7
20260905235315 99 199 7.0 13.0 0.00 0.00 0.00 16 1009.7
20260905234827 99 194 8.0 13.0 0.00 0.00 0.00 16 1009.7
20260905234338 99 159 9.0 12.0 0.00 0.00 0.00 15 1009.7
20260905233833 99 153 6.0 12.0 0.00 0.00 0.00 16 1009.7
20260905233323 99 121 5.0 15.0 0.00 0.00 0.00 15 1009.8
20260905232816 100 140 10.0 15.0 0.00 0.00 0.00 14 1009.7
20260905232326 100 186 9.0 14.0 0.00 0.00 0.00 14 1009.7
20260905231820 100 156 11.0 16.0 0.00 0.00 0.00 14 1009.6
20260905231331 100 178 8.0 14.0 0.00 0.00 0.00 14 1009.7
20260905230824 100 157 6.0 11.0 0.00 0.00 0.00 14 1009.7
20260905230316 99 187 8.0 11.0 0.00 0.00 0.00 14 1009.8
20260905225830 99 157 8.0 11.0 0.00 0.00 0.00 14 1009.8
20260905225320 100 124 7.0 11.0 0.00 0.00 0.00 14 1009.8
20260905224813 100 157 7.0 15.0 0.00 0.00 0.00 14 1009.9
20260905224325 100 159 7.0 15.0 0.00 0.00 0.00 14 1009.9
20260905223818 99 168 7.0 14.0 0.00 0.00 0.00 14 1010.0
20260905223329 99 153 7.0 14.0 0.00 0.00 0.00 14 1010.0
20260905222822 99 151 9.0 12.0 0.00 0.00 0.00 14 1010.1
20260905222314 99 165 9.0 12.0 0.00 0.00 0.00 13 1010.1
20260905221831 99 186 6.0 14.0 0.00 0.00 0.00 13 1010.1
20260905221321 99 105 6.0 12.0 0.00 0.00 0.00 14 1010.1
20260905220814 99 144 6.0 10.0 0.00 0.00 0.00 13 1010.2
20260905220346 99 157 5.0 10.0 0.00 0.00 0.00 13 1010.3
20260905215813 99 170 4.0 15.0 0.00 0.00 0.00 13 1010.4
20260905215325 98 138 9.0 15.0 0.00 0.00 0.00 13 1010.4
20260905214818 98 108 8.0 17.0 0.00 0.00 0.00 14 1010.5
20260905214350 97 150 7.0 13.0 0.00 0.00 0.00 13 1010.5
20260905213820 98 60 8.0 13.0 0.00 0.00 0.00 13 1010.5
20260905213352 98 103 7.0 15.0 0.00 0.00 0.00 13 1010.6
20260905212827 98 112 6.0 15.0 0.00 0.00 0.00 13 1010.7
20260905212317 99 108 9.0 15.0 0.00 0.00 0.00 13 1010.7
20260905211830 99 123 2.0 10.0 0.00 0.00 0.00 13 1010.8
20260905211320 99 148 5.0 14.0 0.00 0.00 0.00 13 1010.9
20260905210833 99 119 6.0 14.0 0.00 0.00 0.00 13 1010.8
20260905210323 98 173 6.0 11.0 0.00 0.00 0.00 12 1010.8
20260905205833 99 133 7.0 14.0 0.00 0.00 0.00 12 1010.9
20260905205345 98 149 8.0 14.0 0.00 0.00 0.00 12 1010.9
20260905204817 98 106 5.0 14.0 0.00 0.00 0.00 11 1011.0
20260905204329 98 145 9.0 12.0 0.00 0.00 0.00 12 1011.0
20260905203846 98 144 6.0 11.0 0.00 0.00 0.00 12 1011.1
20260905203315 98 221 5.0 11.0 0.00 0.00 0.00 12 1011.1
20260905202828 98 130 5.0 13.0 0.00 0.00 0.00 12 1011.1
20260905202320 98 126 8.0 13.0 0.00 0.00 0.00 12 1011.2
20260905201813 97 161 6.0 9.0 0.00 0.00 0.00 13 1011.2
20260905201325 97 165 3.0 7.0 0.00 0.00 0.00 12 1011.3
20260905200819 97 129 1.0 13.0 0.00 0.00 0.00 11 1011.3
20260905200330 98 181 5.0 13.0 0.00 0.00 0.00 12 1011.4
20260905195820 97 199 4.0 9.0 0.00 0.00 0.00 11 1011.4
20260905195315 97 146 5.0 9.0 0.00 0.00 0.00 11 1011.6
20260905194848 97 124 3.0 8.0 0.00 0.00 0.00 11 1011.6
20260905194317 97 225 4.0 8.0 0.00 0.00 0.00 11 1011.7
20260905193851 97 171 1.0 11.0 0.00 0.00 0.00 11 1011.7
20260905193321 97 173 7.0 11.0 0.00 0.00 0.00 12 1011.8
20260905192813 97 109 3.0 9.0 0.00 0.00 0.00 11 1011.9
20260905192325 96 186 5.0 11.0 0.00 0.00 0.00 11 1011.9
20260905191819 96 155 6.0 11.0 0.00 0.00 0.00 11 1012.0
20260905191350 96 171 6.0 11.0 0.00 0.00 0.00 11 1012.0
20260905190822 96 169 8.0 10.0 0.00 0.00 0.00 11 1012.1
20260905190317 95 167 6.0 10.0 0.00 0.00 0.00 12 1012.1
20260905185827 95 161 7.0 10.0 0.00 0.00 0.00 11 1012.2
20260905185318 95 206 7.0 11.0 0.00 0.00 0.00 11 1012.2
20260905184851 95 196 4.0 8.0 0.00 0.00 0.00 11 1012.2
20260905184340 96 153 2.0 6.0 0.00 0.00 0.00 11 1012.2
20260905183852 95 110 2.0 6.0 0.00 0.00 0.00 11 1012.2
20260905183322 95 336 2.0 6.0 0.00 0.00 0.00 10 1012.2
20260905182815 94 337 3.0 4.0 0.00 0.00 0.00 11 1012.3
20260905182327 93 212 1.0 7.0 0.00 0.00 0.00 11 1012.4
20260905181839 93 234 2.0 8.0 0.00 0.00 0.00 11 1012.5
20260905181327 93 243 3.0 8.0 0.00 0.00 0.00 10 1012.5
20260905180824 93 278 5.0 7.0 0.00 0.00 0.00 10 1012.5
20260905180314 93 223 3.0 9.0 0.00 0.00 0.00 10 1012.5
20260905175823 93 243 6.0 11.0 0.00 0.00 0.00 10 1012.5
20260905175313 93 293 4.0 11.0 0.00 0.00 0.00 10 1012.5
20260905174826 93 232 7.0 11.0 0.00 0.00 0.00 10 1012.5
20260905174318 93 255 8.0 11.0 0.00 0.00 0.00 11 1012.4
20260905173831 92 238 5.0 11.0 0.00 0.00 0.00 11 1012.3
20260905173323 93 302 3.0 11.0 0.00 0.00 0.00 11 1012.3
20260905172819 93 298 6.0 11.0 0.00 0.00 0.00 11 1012.3
20260905172350 92 273 5.0 10.0 0.00 0.00 0.00 11 1012.2
20260905171820 92 317 4.0 11.0 0.00 0.00 0.00 12 1012.3
20260905171331 92 234 6.0 12.0 0.00 0.00 0.00 12 1012.3
20260905170825 92 322 7.0 12.0 0.00 0.00 0.00 12 1012.3
20260905170317 91 311 8.0 12.0 0.00 0.00 0.00 12 1012.2
20260905165827 91 253 7.0 13.0 0.00 0.00 0.00 13 1012.3
20260905165319 90 318 9.0 13.0 0.00 0.00 0.00 13 1012.3
20260905164831 90 321 8.0 11.0 0.00 0.00 0.00 13 1012.3
20260905164322 89 325 6.0 16.0 0.00 0.00 0.00 13 1012.2
20260905163819 89 254 8.0 16.0 0.00 0.00 0.00 13 1012.2
20260905163329 89 276 10.0 12.0 0.00 0.00 0.00 13 1012.3
20260905162821 89 292 8.0 13.0 0.00 0.00 0.00 14 1012.2
20260905162352 89 311 9.0 14.0 0.00 0.00 0.00 14 1012.2
20260905161823 88 307 10.0 14.0 0.00 0.00 0.00 14 1012.1
20260905161335 88 311 10.0 14.0 0.00 0.00 0.00 14 1012.1
20260905160826 88 275 10.0 14.0 0.00 0.00 0.00 14 1012.0
20260905160337 87 294 11.0 14.0 0.00 0.00 0.00 14 1012.0
20260905155825 87 311 11.0 15.0 0.00 0.00 0.00 14 1012.0
20260905155317 87 288 11.0 17.0 0.00 0.00 0.00 14 1012.0
20260905154815 87 302 12.0 17.0 0.00 0.00 0.00 14 1012.0
20260905154325 87 301 9.0 16.0 0.00 0.00 0.00 14 1012.0
20260905153816 87 318 13.0 16.0 0.00 0.00 0.00 14 1011.9
20260905153327 86 286 11.0 14.0 0.00 0.00 0.00 15 1011.8
20260905152819 86 269 10.0 14.0 0.00 0.00 0.00 15 1011.7
20260905152350 85 279 9.0 12.0 0.00 0.00 0.00 16 1011.7
20260905151842 85 265 5.0 13.0 0.00 0.00 0.00 16 1011.7
20260905151352 84 286 11.0 13.0 0.00 0.00 0.00 16 1011.7
20260905150844 84 288 9.0 12.0 0.00 0.00 0.00 16 1011.7
20260905150315 84 274 9.0 11.0 0.00 0.00 0.00 17 1011.7
20260905145826 83 297 9.0 13.0 0.00 0.00 0.00 17 1011.7
20260905145323 83 297 9.0 12.0 0.00 0.00 0.00 16 1011.8